User: anonymous   Login
Location: Unspecified
(0.0000°N, 0.0000°E)
Time: 22:48:50
(UTC+00:00)
Language:

JAISAT 1 - Orbit

View from above orbital plane
View from above orbital plane
View from above satellite
View from above satellite

Ground track
Ground track

The orbit data is extracted from the following two-line orbital elements,

1 44419U 19038F   21207.43866236  .00001616  00000-0  92600-4 0  9998
2 44419  97.5907 172.0042 0021025 173.2931 186.8586 15.13879274113692
Epoch (UTC): 26 July 2021 10:31:40
Eccentricity: 0.0021025
inclination: 97.5907°
perigee height: 510 km
apogee height: 539 km
right ascension of ascending node: 172.0042°
argument of perigee: 173.2931°
revolutions per day: 15.13879274
mean anomaly at epoch: 186.8586°
orbit number at epoch: 11369

The dashed part of the orbit path shows where the satellite is in the earth's shadow,  

DLR